TimePST,TemperatureF,Dew PointF,Humidity,Sea Level PressureIn,VisibilityMPH,Wind Direction,Wind SpeedMPH,Gust SpeedMPH,PrecipitationIn,Events,Conditions,WindDirDegrees,DateUTC
12:56 AM,60.1,46.0,60,30.19,10.0,North,-9999.0,-,N/A,,Clear,0,2014-01-25 08:56:00
1:56 AM,55.9,48.0,75,30.18,10.0,ESE,3.5,-,N/A,,Clear,110,2014-01-25 09:56:00
2:56 AM,59.0,46.9,64,30.19,10.0,East,5.8,31.1,N/A,,Clear,100,2014-01-25 10:56:00
3:56 AM,57.0,46.9,69,30.20,10.0,Calm,Calm,-,N/A,,Clear,0,2014-01-25 11:56:00
4:56 AM,55.9,46.9,72,30.19,10.0,Calm,Calm,-,N/A,,Clear,0,2014-01-25 12:56:00
5:56 AM,54.0,46.0,75,30.20,10.0,Calm,Calm,-,N/A,,Clear,0,2014-01-25 13:56:00
6:56 AM,53.1,45.0,74,30.20,10.0,Calm,Calm,-,N/A,,Clear,0,2014-01-25 14:56:00
7:56 AM,53.1,45.0,74,30.20,10.0,Calm,Calm,-,N/A,,Clear,0,2014-01-25 15:56:00
8:56 AM,57.0,48.0,72,30.20,10.0,Calm,Calm,-,N/A,,Mostly Cloudy,0,2014-01-25 16:56:00
9:56 AM,62.1,48.9,62,30.21,10.0,East,4.6,-,N/A,,Clear,90,2014-01-25 17:56:00
10:56 AM,66.9,45.0,45,30.20,10.0,Calm,Calm,-,N/A,,Mostly Cloudy,0,2014-01-25 18:56:00
11:56 AM,72.0,42.1,34,30.17,10.0,Calm,Calm,-,N/A,,Mostly Cloudy,0,2014-01-25 19:56:00
12:56 PM,79.0,37.9,23,30.13,10.0,NNE,4.6,-,N/A,,Overcast,20,2014-01-25 20:56:00
1:56 PM,77.0,25.0,15,30.12,10.0,WSW,9.2,-,N/A,,Overcast,250,2014-01-25 21:56:00
2:56 PM,75.0,39.0,27,30.12,10.0,NW,6.9,-,N/A,,Overcast,320,2014-01-25 22:56:00
3:56 PM,70.0,44.1,39,30.12,10.0,NW,9.2,-,N/A,,Overcast,320,2014-01-25 23:56:00
4:56 PM,66.0,44.1,45,30.12,10.0,NW,6.9,-,N/A,,Overcast,320,2014-01-26 00:56:00
5:56 PM,64.0,41.0,43,30.13,10.0,WNW,4.6,-,N/A,,Mostly Cloudy,300,2014-01-26 01:56:00
6:56 PM,63.0,39.0,41,30.13,10.0,Calm,Calm,-,N/A,,Scattered Clouds,0,2014-01-26 02:56:00
7:56 PM,57.9,39.0,49,30.13,10.0,Calm,Calm,-,N/A,,Clear,0,2014-01-26 03:56:00
8:56 PM,55.0,36.0,49,30.13,10.0,Calm,Calm,-,N/A,,Clear,0,2014-01-26 04:56:00
9:56 PM,53.1,35.1,50,30.14,10.0,East,3.5,-,N/A,,Clear,100,2014-01-26 05:56:00
10:56 PM,50.0,30.9,48,30.14,10.0,Calm,Calm,-,N/A,,Clear,0,2014-01-26 06:56:00
11:56 PM,48.9,34.0,56,30.12,10.0,Calm,Calm,-,N/A,,Clear,0,2014-01-26 07:56:00